Yaogan 37 01 xing

operational
NORAD ID: 55244 Int'l Des: 2023-006 Owner: ZZB Country: CN Constellation: yaogan
LEOCIRCULAR

About Yaogan 37 01 xing

Description loading...

Live Position

Loading 3D Globe...

Upcoming Passes

Altitude History

Altitude vs Time

uPlot chart will show altitude changes over time

Two-Line Element Set

1 55244U 23006C 26062.18290110 .00008444 00000-0 44185-3 0 9994
2 55244 43.1980 349.5119 0016862 61.9801 298.2753 15.16015279173786
Epoch: Mar 3, 2026 • Age: 19 hours

Current Status

Altitude 507.5 km
Velocity 7.62 km/s
Sub-Earth Point 25.11°N, 67.43°W
Launch Date Jan 13, 2023
Age 3.1 years
Type military

Technical Details

Classification Payload
Mass 1000.00 kg
Dry Mass 1000.00 kg
Total Mass 1000.00 kg
Length 2.50 m
Diameter 2.50 m
Span 5.00 m
Shape Box + 2 Pan
Manufacturer DFHZ
Phase Status In Orbit
Owner/State ZZB/CN

Large Constellations

Loading constellations...